This is the latest recevied weather packets stored in our database for station/object FW7644. If no packets are shown the sender has not sent any weather packets the latest 10 day(s).
| Time | Temp. | Humidity | Pressure | Rain* | Wind** | Luminosity | Snow |
|---|---|---|---|---|---|---|---|
| 1777913490 | 18.33° C | 82% | 1021.5 hPa | 0 mm | - | - | - |
| 1777913189 | 18.89° C | 83% | 1021.5 hPa | 0 mm | - | - | - |
| 1777912887 | 18.33° C | 87% | 1021.8 hPa | 0 mm | - | - | - |
| 1777912585 | 17.22° C | 90% | 1021.9 hPa | 0 mm | - | - | - |
| 1777912283 | 17.22° C | 92% | 1021.8 hPa | 0 mm | - | - | - |
| 1777911982 | 16.67° C | 93% | 1022 hPa | 0 mm | - | - | - |
| 1777911680 | 16.67° C | 93% | 1022 hPa | 0 mm | - | - | - |
| 1777911378 | 16.67° C | 95% | 1022.1 hPa | 0 mm | - | - | - |
| 1777911076 | 16.11° C | 95% | 1022.2 hPa | 0 mm | - | - | - |
| 1777910774 | 16.11° C | 95% | 1022.3 hPa | 0 mm | - | - | - |
| 1777910473 | 16.11° C | 95% | 1022.4 hPa | 0 mm | - | - | - |
| 1777910171 | 16.11° C | 96% | 1022.5 hPa | 0 mm | - | - | - |
| 1777909869 | 16.11° C | 95% | 1022.4 hPa | 0 mm | - | - | - |
| 1777909568 | 16.11° C | 95% | 1022.6 hPa | 0 mm | - | - | - |
| 1777909266 | 16.11° C | 95% | 1022.7 hPa | 0 mm | - | - | - |
| 1777908965 | 16.11° C | 95% | 1022.6 hPa | 0 mm | - | - | - |
| 1777908663 | 16.11° C | 95% | 1022.6 hPa | 0 mm | - | - | - |
| 1777908361 | 16.11° C | 96% | 1022.5 hPa | 0 mm | - | - | - |
| 1777908060 | 16.11° C | 96% | 1022.5 hPa | 0 mm | - | - | - |
| 1777907758 | 16.11° C | 96% | 1023 hPa | 0 mm | - | - | - |
| 1777907457 | 15.56° C | 95% | 1023.2 hPa | 0 mm | - | - | - |
| 1777907155 | 16.11° C | 93% | 1023.3 hPa | 0 mm | - | - | - |
| 1777906853 | 16.11° C | 93% | 1023.3 hPa | 0 mm | - | - | - |
| 1777906550 | 16.11° C | 90% | 1023.3 hPa | 0 mm | - | - | - |
| 1777906249 | 16.67° C | 90% | 1023.2 hPa | 0 mm | - | - | - |
* Rain latest hour (hover to see other rain measurements)
** Current wind speed in m/s (hover to see current wind gust speed)